1998-067QQ

Last updated on Fri Jul 19 2019 00:02:10 GMT+0000 (Coordinated Universal Time)

1 44430U 98067QQ 19199.15119287 .00003549 00000-0 65863-4 0 9991 2 44430 51.6404 207.5661 0003244 159.0478 201.0645 15.51840023 1177
UTC large
Height (km)
Speed (km/s)
/
Latitude / Longitude
Inclination (degrees)
Orbital Period (minutes)
Azimuth
Elevation
Range (km)
Doppler Factor

Next 0 passes for location: London (51.5072 / 0.1276)

Sorry there are no passes over London.